Time,TemperatureF,DewpointF,PressureIn,WindDirection,WindDirectionDegrees,WindSpeedMPH,WindSpeedGustMPH,Humidity,HourlyPrecipIn,Conditions,Clouds,dailyrainin,SolarRadiationWatts/m^2,SoftwareType,DateUTC
2013-06-03 00:03:00,62.0,37.0,-100.00,NE,43,9.0,29.0,40,0.00,,,0.00,0.000000,,2013-06-03 04:03:00,
2013-06-03 00:13:00,62.0,37.0,-100.00,NE,43,9.0,29.0,40,0.00,,,0.00,0.000000,,2013-06-03 04:13:00,
2013-06-03 00:23:00,62.0,37.0,-100.00,NE,43,9.0,29.0,40,0.00,,,0.00,0.000000,,2013-06-03 04:23:00,
2013-06-03 00:33:00,62.0,37.0,-100.00,NE,43,9.0,29.0,40,0.00,,,0.00,0.000000,,2013-06-03 04:33:00,
2013-06-03 00:53:00,59.0,31.0,-100.00,North,7,2.0,12.0,34,0.00,,,0.00,0.000000,,2013-06-03 04:53:00,
2013-06-03 01:02:00,59.0,31.0,-100.00,North,7,2.0,12.0,34,0.00,,,0.00,0.000000,,2013-06-03 05:02:00,
2013-06-03 01:12:00,59.0,31.0,-100.00,North,7,2.0,12.0,34,0.00,,,0.00,0.000000,,2013-06-03 05:12:00,
2013-06-03 01:22:00,59.0,31.0,-100.00,North,7,2.0,12.0,34,0.00,,,0.00,0.000000,,2013-06-03 05:22:00,
2013-06-03 01:32:00,59.0,31.0,-100.00,North,7,2.0,12.0,34,0.00,,,0.00,0.000000,,2013-06-03 05:32:00,
2013-06-03 01:52:00,54.0,29.0,-100.00,NE,35,4.0,10.0,38,0.00,,,0.00,0.000000,,2013-06-03 05:52:00,
2013-06-03 02:02:00,54.0,29.0,-100.00,NE,35,4.0,10.0,38,0.00,,,0.00,0.000000,,2013-06-03 06:02:00,
2013-06-03 02:12:00,54.0,29.0,-100.00,NE,35,4.0,10.0,38,0.00,,,0.00,0.000000,,2013-06-03 06:12:00,
2013-06-03 02:22:00,54.0,29.0,-100.00,NE,35,4.0,10.0,38,0.00,,,0.00,0.000000,,2013-06-03 06:22:00,
2013-06-03 02:32:00,54.0,29.0,-100.00,NE,35,4.0,10.0,38,0.00,,,0.00,0.000000,,2013-06-03 06:32:00,
2013-06-03 02:52:00,53.0,29.0,-100.00,ENE,76,3.0,8.0,40,0.00,,,0.00,0.000000,,2013-06-03 06:52:00,
2013-06-03 03:02:00,53.0,29.0,-100.00,ENE,76,3.0,8.0,40,0.00,,,0.00,0.000000,,2013-06-03 07:02:00,
2013-06-03 03:12:00,53.0,29.0,-100.00,ENE,76,3.0,8.0,40,0.00,,,0.00,0.000000,,2013-06-03 07:12:00,
2013-06-03 03:22:00,53.0,29.0,-100.00,ENE,76,3.0,8.0,40,0.00,,,0.00,0.000000,,2013-06-03 07:22:00,
2013-06-03 03:32:00,53.0,29.0,-100.00,ENE,76,3.0,8.0,40,0.00,,,0.00,0.000000,,2013-06-03 07:32:00,
2013-06-03 03:52:00,52.0,30.0,-100.00,SE,130,2.0,7.0,43,0.00,,,0.00,0.000000,,2013-06-03 07:52:00,
2013-06-03 04:02:00,52.0,30.0,-100.00,SE,130,2.0,7.0,43,0.00,,,0.00,0.000000,,2013-06-03 08:02:00,
2013-06-03 04:12:00,52.0,30.0,-100.00,SE,130,2.0,7.0,43,0.00,,,0.00,0.000000,,2013-06-03 08:12:00,
2013-06-03 04:22:00,52.0,30.0,-100.00,SE,130,2.0,7.0,43,0.00,,,0.00,0.000000,,2013-06-03 08:22:00,
2013-06-03 04:32:00,52.0,30.0,-100.00,SE,130,2.0,7.0,43,0.00,,,0.00,0.000000,,2013-06-03 08:32:00,
2013-06-03 04:52:00,49.0,30.0,-100.00,NE,44,4.0,7.0,48,0.00,,,0.00,0.000000,,2013-06-03 08:52:00,
2013-06-03 05:02:00,49.0,30.0,-100.00,NE,44,4.0,7.0,48,0.00,,,0.00,0.000000,,2013-06-03 09:02:00,
2013-06-03 05:12:00,49.0,30.0,-100.00,NE,44,4.0,7.0,48,0.00,,,0.00,0.000000,,2013-06-03 09:12:00,
2013-06-03 05:22:00,49.0,30.0,-100.00,NE,44,4.0,7.0,48,0.00,,,0.00,0.000000,,2013-06-03 09:22:00,
2013-06-03 05:33:00,49.0,30.0,-100.00,NE,44,4.0,7.0,48,0.00,,,0.00,0.000000,,2013-06-03 09:33:00,
2013-06-03 05:53:00,47.0,30.0,-100.00,East,90,2.0,6.0,52,0.00,,,0.00,0.000000,,2013-06-03 09:53:00,
2013-06-03 06:03:00,47.0,30.0,-100.00,East,90,2.0,6.0,52,0.00,,,0.00,0.000000,,2013-06-03 10:03:00,
2013-06-03 06:12:00,47.0,30.0,-100.00,East,90,2.0,6.0,52,0.00,,,0.00,0.000000,,2013-06-03 10:12:00,
2013-06-03 06:22:00,47.0,30.0,-100.00,East,90,2.0,6.0,52,0.00,,,0.00,0.000000,,2013-06-03 10:22:00,
2013-06-03 06:33:00,47.0,30.0,-100.00,East,90,2.0,6.0,52,0.00,,,0.00,0.000000,,2013-06-03 10:33:00,
2013-06-03 06:52:00,50.0,33.0,-100.00,East,94,7.0,14.0,52,0.00,,,0.00,0.000000,,2013-06-03 10:52:00,
2013-06-03 07:02:00,50.0,33.0,-100.00,East,94,7.0,14.0,52,0.00,,,0.00,0.000000,,2013-06-03 11:02:00,
2013-06-03 07:12:00,50.0,33.0,-100.00,East,94,7.0,14.0,52,0.00,,,0.00,0.000000,,2013-06-03 11:12:00,
2013-06-03 07:22:00,50.0,33.0,-100.00,East,94,7.0,14.0,52,0.00,,,0.00,0.000000,,2013-06-03 11:22:00,
2013-06-03 07:32:00,50.0,33.0,-100.00,East,94,7.0,14.0,52,0.00,,,0.00,0.000000,,2013-06-03 11:32:00,
2013-06-03 07:52:00,45.0,29.0,-100.00,ESE,123,4.0,8.0,54,0.00,,,0.00,0.000000,,2013-06-03 11:52:00,
2013-06-03 08:02:00,45.0,29.0,-100.00,ESE,123,4.0,8.0,54,0.00,,,0.00,0.000000,,2013-06-03 12:02:00,
2013-06-03 08:12:00,45.0,29.0,-100.00,ESE,123,4.0,8.0,54,0.00,,,0.00,0.000000,,2013-06-03 12:12:00,
2013-06-03 08:22:00,45.0,29.0,-100.00,ESE,123,4.0,8.0,54,0.00,,,0.00,0.000000,,2013-06-03 12:22:00,
2013-06-03 08:32:00,45.0,29.0,-100.00,ESE,123,4.0,8.0,54,0.00,,,0.00,0.000000,,2013-06-03 12:32:00,
2013-06-03 08:52:00,50.0,35.0,-100.00,SSW,194,3.0,7.0,56,0.00,,,0.00,23.000000,,2013-06-03 12:52:00,
2013-06-03 09:02:00,50.0,35.0,-100.00,SSW,194,3.0,7.0,56,0.00,,,0.00,23.000000,,2013-06-03 13:02:00,
2013-06-03 09:12:00,50.0,35.0,-100.00,SSW,194,3.0,7.0,56,0.00,,,0.00,23.000000,,2013-06-03 13:12:00,
2013-06-03 09:22:00,50.0,35.0,-100.00,SSW,194,3.0,7.0,56,0.00,,,0.00,23.000000,,2013-06-03 13:22:00,
2013-06-03 09:32:00,50.0,35.0,-100.00,SSW,194,3.0,7.0,56,0.00,,,0.00,23.000000,,2013-06-03 13:32:00,
2013-06-03 09:53:00,59.0,39.0,-100.00,South,174,1.0,5.0,48,0.00,,,0.00,155.000000,,2013-06-03 13:53:00,
2013-06-03 10:02:00,59.0,39.0,-100.00,South,174,1.0,5.0,48,0.00,,,0.00,155.000000,,2013-06-03 14:02:00,
2013-06-03 10:12:00,59.0,39.0,-100.00,South,174,1.0,5.0,48,0.00,,,0.00,155.000000,,2013-06-03 14:12:00,
2013-06-03 10:22:00,59.0,39.0,-100.00,South,174,1.0,5.0,48,0.00,,,0.00,155.000000,,2013-06-03 14:22:00,
2013-06-03 10:32:00,59.0,39.0,-100.00,South,174,1.0,5.0,48,0.00,,,0.00,155.000000,,2013-06-03 14:32:00,
2013-06-03 10:52:00,65.0,42.0,-100.00,NW,319,6.0,9.0,43,0.00,,,0.00,338.000000,,2013-06-03 14:52:00,
2013-06-03 11:02:00,65.0,42.0,-100.00,NW,319,6.0,9.0,43,0.00,,,0.00,338.000000,,2013-06-03 15:02:00,
2013-06-03 11:12:00,65.0,42.0,-100.00,NW,319,6.0,9.0,43,0.00,,,0.00,338.000000,,2013-06-03 15:12:00,
2013-06-03 11:22:00,65.0,42.0,-100.00,NW,319,6.0,9.0,43,0.00,,,0.00,338.000000,,2013-06-03 15:22:00,
2013-06-03 11:33:00,65.0,42.0,-100.00,NW,319,6.0,9.0,43,0.00,,,0.00,338.000000,,2013-06-03 15:33:00,
2013-06-03 11:53:00,69.0,46.0,-100.00,NW,326,5.0,9.0,43,0.00,,,0.00,543.000000,,2013-06-03 15:53:00,
2013-06-03 12:03:00,69.0,46.0,-100.00,NW,326,5.0,9.0,43,0.00,,,0.00,543.000000,,2013-06-03 16:03:00,
2013-06-03 12:13:00,69.0,46.0,-100.00,NW,326,5.0,9.0,43,0.00,,,0.00,543.000000,,2013-06-03 16:13:00,
2013-06-03 12:23:00,69.0,46.0,-100.00,NW,326,5.0,9.0,43,0.00,,,0.00,543.000000,,2013-06-03 16:23:00,
2013-06-03 12:33:00,69.0,46.0,-100.00,NW,326,5.0,9.0,43,0.00,,,0.00,543.000000,,2013-06-03 16:33:00,
2013-06-03 12:53:00,73.0,44.0,-100.00,SSW,198,4.0,10.0,36,0.00,,,0.00,712.000000,,2013-06-03 16:53:00,
2013-06-03 13:02:00,73.0,44.0,-100.00,SSW,198,4.0,10.0,36,0.00,,,0.00,712.000000,,2013-06-03 17:02:00,
2013-06-03 13:12:00,73.0,44.0,-100.00,SSW,198,4.0,10.0,36,0.00,,,0.00,712.000000,,2013-06-03 17:12:00,
2013-06-03 13:22:00,73.0,44.0,-100.00,SSW,198,4.0,10.0,36,0.00,,,0.00,712.000000,,2013-06-03 17:22:00,
2013-06-03 13:33:00,73.0,44.0,-100.00,SSW,198,4.0,10.0,36,0.00,,,0.00,712.000000,,2013-06-03 17:33:00,
2013-06-03 13:52:00,78.0,40.0,-100.00,WSW,257,9.0,17.0,26,0.00,,,0.00,855.000000,,2013-06-03 17:52:00,
2013-06-03 14:02:00,78.0,40.0,-100.00,WSW,257,9.0,17.0,26,0.00,,,0.00,855.000000,,2013-06-03 18:02:00,
2013-06-03 14:12:00,78.0,40.0,-100.00,WSW,257,9.0,17.0,26,0.00,,,0.00,855.000000,,2013-06-03 18:12:00,
2013-06-03 14:22:00,78.0,40.0,-100.00,WSW,257,9.0,17.0,26,0.00,,,0.00,855.000000,,2013-06-03 18:22:00,
2013-06-03 14:32:00,78.0,40.0,-100.00,WSW,257,9.0,17.0,26,0.00,,,0.00,855.000000,,2013-06-03 18:32:00,
2013-06-03 14:53:00,80.0,34.0,-100.00,SW,233,8.0,20.0,19,0.00,,,0.00,928.000000,,2013-06-03 18:53:00,
2013-06-03 15:03:00,80.0,34.0,-100.00,SW,233,8.0,20.0,19,0.00,,,0.00,928.000000,,2013-06-03 19:03:00,
2013-06-03 15:12:00,80.0,34.0,-100.00,SW,233,8.0,20.0,19,0.00,,,0.00,928.000000,,2013-06-03 19:12:00,
2013-06-03 15:22:00,80.0,34.0,-100.00,SW,233,8.0,20.0,19,0.00,,,0.00,928.000000,,2013-06-03 19:22:00,
2013-06-03 15:32:00,80.0,34.0,-100.00,SW,233,8.0,20.0,19,0.00,,,0.00,928.000000,,2013-06-03 19:32:00,
2013-06-03 15:53:00,81.0,33.0,-100.00,SW,235,11.0,19.0,18,0.00,,,0.00,768.000000,,2013-06-03 19:53:00,
2013-06-03 16:02:00,81.0,33.0,-100.00,SW,235,11.0,19.0,18,0.00,,,0.00,768.000000,,2013-06-03 20:02:00,
2013-06-03 16:12:00,81.0,33.0,-100.00,SW,235,11.0,19.0,18,0.00,,,0.00,768.000000,,2013-06-03 20:12:00,
2013-06-03 16:22:00,81.0,33.0,-100.00,SW,235,11.0,19.0,18,0.00,,,0.00,768.000000,,2013-06-03 20:22:00,
2013-06-03 16:32:00,81.0,33.0,-100.00,SW,235,11.0,19.0,18,0.00,,,0.00,768.000000,,2013-06-03 20:32:00,
2013-06-03 16:52:00,80.0,28.0,-100.00,SW,215,10.0,25.0,15,0.00,,,0.00,686.000000,,2013-06-03 20:52:00,
2013-06-03 17:02:00,80.0,28.0,-100.00,SW,215,10.0,25.0,15,0.00,,,0.00,686.000000,,2013-06-03 21:02:00,
2013-06-03 17:12:00,80.0,28.0,-100.00,SW,215,10.0,25.0,15,0.00,,,0.00,686.000000,,2013-06-03 21:12:00,
2013-06-03 17:22:00,80.0,28.0,-100.00,SW,215,10.0,25.0,15,0.00,,,0.00,686.000000,,2013-06-03 21:22:00,
2013-06-03 17:33:00,80.0,28.0,-100.00,SW,215,10.0,25.0,15,0.00,,,0.00,686.000000,,2013-06-03 21:33:00,
2013-06-03 17:53:00,84.0,26.0,-100.00,WSW,255,9.0,24.0,12,0.00,,,0.00,798.000000,,2013-06-03 21:53:00,
2013-06-03 18:03:00,84.0,26.0,-100.00,WSW,255,9.0,24.0,12,0.00,,,0.00,798.000000,,2013-06-03 22:03:00,
2013-06-03 18:12:00,84.0,26.0,-100.00,WSW,255,9.0,24.0,12,0.00,,,0.00,798.000000,,2013-06-03 22:12:00,
2013-06-03 18:22:00,84.0,26.0,-100.00,WSW,255,9.0,24.0,12,0.00,,,0.00,798.000000,,2013-06-03 22:22:00,
2013-06-03 18:32:00,84.0,26.0,-100.00,WSW,255,9.0,24.0,12,0.00,,,0.00,798.000000,,2013-06-03 22:32:00,
2013-06-03 18:53:00,84.0,24.0,-100.00,WSW,254,11.0,24.0,11,0.00,,,0.00,642.000000,,2013-06-03 22:53:00,
2013-06-03 19:02:00,84.0,24.0,-100.00,WSW,254,11.0,24.0,11,0.00,,,0.00,642.000000,,2013-06-03 23:02:00,
2013-06-03 19:12:00,84.0,24.0,-100.00,WSW,254,11.0,24.0,11,0.00,,,0.00,642.000000,,2013-06-03 23:12:00,
2013-06-03 19:22:00,84.0,24.0,-100.00,WSW,254,11.0,24.0,11,0.00,,,0.00,642.000000,,2013-06-03 23:22:00,
2013-06-03 19:32:00,84.0,24.0,-100.00,WSW,254,11.0,24.0,11,0.00,,,0.00,642.000000,,2013-06-03 23:32:00,
2013-06-03 19:52:00,77.0,20.0,-100.00,WNW,291,16.0,27.0,12,0.00,,,0.00,155.000000,,2013-06-03 23:52:00,
2013-06-03 20:02:00,77.0,20.0,-100.00,WNW,291,16.0,27.0,12,0.00,,,0.00,155.000000,,2013-06-04 00:02:00,
2013-06-03 20:12:00,77.0,20.0,-100.00,WNW,291,16.0,27.0,12,0.00,,,0.00,155.000000,,2013-06-04 00:12:00,
2013-06-03 20:22:00,77.0,20.0,-100.00,WNW,291,16.0,27.0,12,0.00,,,0.00,155.000000,,2013-06-04 00:22:00,
2013-06-03 20:32:00,77.0,20.0,-100.00,WNW,291,16.0,27.0,12,0.00,,,0.00,155.000000,,2013-06-04 00:32:00,
2013-06-03 20:52:00,76.0,28.0,-100.00,West,281,18.0,31.0,17,0.00,,,0.00,186.000000,,2013-06-04 00:52:00,
2013-06-03 21:02:00,76.0,28.0,-100.00,West,281,18.0,31.0,17,0.00,,,0.00,186.000000,,2013-06-04 01:02:00,
2013-06-03 21:12:00,76.0,28.0,-100.00,West,281,18.0,31.0,17,0.00,,,0.00,186.000000,,2013-06-04 01:12:00,
2013-06-03 21:22:00,76.0,28.0,-100.00,West,281,18.0,31.0,17,0.00,,,0.00,186.000000,,2013-06-04 01:22:00,
2013-06-03 21:32:00,76.0,28.0,-100.00,West,281,18.0,31.0,17,0.00,,,0.00,186.000000,,2013-06-04 01:32:00,
2013-06-03 21:53:00,76.0,22.0,-100.00,WNW,303,14.0,28.0,13,0.00,,,0.00,194.000000,,2013-06-04 01:53:00,
2013-06-03 22:02:00,76.0,22.0,-100.00,WNW,303,14.0,28.0,13,0.00,,,0.00,194.000000,,2013-06-04 02:02:00,
2013-06-03 22:12:00,76.0,22.0,-100.00,WNW,303,14.0,28.0,13,0.00,,,0.00,194.000000,,2013-06-04 02:12:00,
2013-06-03 22:22:00,76.0,22.0,-100.00,WNW,303,14.0,28.0,13,0.00,,,0.00,194.000000,,2013-06-04 02:22:00,
2013-06-03 22:32:00,76.0,22.0,-100.00,WNW,303,14.0,28.0,13,0.00,,,0.00,194.000000,,2013-06-04 02:32:00,
2013-06-03 22:52:00,71.0,23.0,-100.00,NW,309,9.0,18.0,16,0.00,,,0.00,26.000000,,2013-06-04 02:52:00,
2013-06-03 23:02:00,71.0,23.0,-100.00,NW,309,9.0,18.0,16,0.00,,,0.00,26.000000,,2013-06-04 03:02:00,
2013-06-03 23:12:00,71.0,23.0,-100.00,NW,309,9.0,18.0,16,0.00,,,0.00,26.000000,,2013-06-04 03:12:00,
2013-06-03 23:22:00,71.0,23.0,-100.00,NW,309,9.0,18.0,16,0.00,,,0.00,26.000000,,2013-06-04 03:22:00,
2013-06-03 23:32:00,71.0,23.0,-100.00,NW,309,9.0,18.0,16,0.00,,,0.00,26.000000,,2013-06-04 03:32:00,
2013-06-03 23:54:00,64.0,23.0,-100.00,North,357,6.0,14.0,21,0.00,,,0.00,0.000000,,2013-06-04 03:54:00,